[ hide orbit diagram ]
For accurate long-term ephemerides, please instead use our Horizons system.This orbit viewer was implemented using two-body methods, and hence should not be used for determining accurate long-term trajectories (over several years or decades) or planetary encounter circumstances.
Orbital Elements at Epoch 2459000.5 (2020-May-31.0) TDB
Reference: JPL 13 (heliocentric ecliptic J2000)
Element | Value | Uncertainty (1-sigma) | Units |
e | .09271870353985175 | 6.9054e-08 | |
a | 2.443701830198408 | 3.3595e-08 | au |
q | 2.217124964664449 | 1.7072e-07 | au |
i | 6.40022935274142 | 7.5265e-06 | deg |
node | 287.1765860346845 | 6.9383e-05 | deg |
peri | 4.342705963611378 | 8.8262e-05 | deg |
M | 75.09522000947986 | 6.2441e-05 | deg |
tp | 2458709.441329500390 (2019-Aug-13.94132950) | 0.0002381 | TDB |
period | 1395.31013247757 3.82 | 2.8773e-05 7.878e-08 | d yr |
n | .2580071567034128 | 5.3204e-09 | deg/d |
Q | 2.670278695732367 | 3.671e-08 | au |
|
| | Orbit Determination Parameters
Additional Information
|
[ show covariance matrix ]
Physical Parameter Table
Parameter |
Symbol |
Value |
Units |
Sigma |
Reference |
Notes |
absolute magnitude |
H |
17.2 |
|
n/a |
MPO437680 |
|
|
434341 (2004 PU80) Discovered 2004-Aug-10 by LINEAR at Socorro |
Reference: | Last Updated: 2015-06-04 |
|
|